User: anonymous   Login
Location: Oberkirch
(48.5323°N, 8.0787°E)
Time: 16:20:23
(UTC+00:00)
Language:

SL-24 R/B - RUBIN 2 - Orbit

View from above orbital plane
View from above orbital plane
View from above satellite
View from above satellite

Ground track
Ground track

The orbit is defined by the following mean orbital elements,

1 27610U          26100.13984844 +.00000000 +00000-0 +63117-4 0 00001
2 27610  64.5618   3.5249 0265449  93.6793  51.0266 14.29525979    01
Epoch (UTC): 10 April 2026 03:21:22
Eccentricity: 0.0265449
inclination: 64.5618°
perigee height: 603 km
apogee height: 984 km
right ascension of ascending node: 3.5249°
argument of perigee: 93.6793°
revolutions per day: 14.29525979
mean anomaly at epoch: 51.0266°

The dashed part of the orbit path shows where the satellite is in the earth's shadow,  

DLR